Regional Weather Roundup
Issued by NWS

Home | Current Version | Previous Version | Graphics & Text | Print | Product List | Glossary On
Versions: 1 2 3 4 5 6 7 8 9 10 11 12 13 14 15 16 17 18 19 20 21 22 23 24 25 26 27 28 29 30 31 32 33 34 35 36 37 38 39 40 41 42 43 44 45 46 47 48 49 50
000
ASUS43 KMKX 262110
RWRWI

WISCONSIN REGIONAL WEATHER ROUNDUP
NATIONAL WEATHER SERVICE MILWAUKEE/SULLIVAN WI
400 PM CDT THU MAR 26 2015

NOTE: "FAIR" INDICATES FEW OR NO CLOUDS BELOW 12,000 FEET WITH NO
SIGNIFICANT WEATHER AND/OR OBSTRUCTIONS TO VISIBILITY.

WIZ001-002-006>008-014>016-023>028-262200-
NORTHWEST WISCONSIN

CITY           SKY/WX    TMP DP  RH WIND       PRES   REMARKS
SUPERIOR ARPT  SUNNY     32   6  33 N13G18    30.12S WCI  22
ASHLAND        PTSUNNY   31  12  45 NE12      30.11F WCI  22
HAYWARD        MOSUNNY   30   8  39 VRB7G16   30.06F WCI  23
SIREN          FAIR      34   3  26 N13G21    30.08S WCI  25
CUMBERLAND     CLOUDY    32  10  40 N8G14     30.05S WCI  25
RICE LAKE      CLOUDY    32  13  45 N9        30.07S WCI  24
CHETEK         CLOUDY    32  15  49 NW5G17    30.06S WCI  27
LADYSMITH      CLOUDY    29  16  57 NW9G17    30.06S WCI  21
EAU CLAIRE     CLOUDY    33  13  43 NW13      30.06S WCI  24
MENOMONIE      CLOUDY    33  15  46 NW13      30.07S WCI  24
NEW RICHMOND   CLOUDY    33  15  46 N14       30.09S WCI  23
OSCEOLA        CLOUDY    34  15  46 NW15      30.12R WCI  24
$$

WIZ003>005-009-010-017-018-262200-
NORTH CENTRAL WISCONSIN

CITY           SKY/WX    TMP DP  RH WIND       PRES   REMARKS
MANITOWISH WTR FLURRIES  20  10  65 N14G20    30.02R WCI   7
ARBOR VITAE    CLOUDY    23  12  62 N14G20    30.01R WCI  10
WOODRUFF       CLOUDY    23  12  62 N14G20    30.01R WCI  10
RHINELANDER    CLOUDY    23  10  57 NW9G17    29.99R WCI  13
EAGLE RIVER    CLOUDY    22   9  57 NW15G23   29.99R WCI   8
LAND O LAKES   FLURRIES  20  10  65 N10G21    30.01R WCI   9
PHILLIPS       CLOUDY    24  11  56 N13G20    30.02S WCI  12
TOMAHAWK       CLOUDY    25  12  58 NW9G16    30.02R WCI  15
MEDFORD        CLOUDY    27  14  59 N10       30.01R WCI  17
MERRILL        CLOUDY    27  13  55 N12G21    30.00R WCI  17
$$

WIZ029-030-035-036-043>047-262200-
CENTRAL WISCONSIN

CITY           SKY/WX    TMP DP  RH WIND       PRES   REMARKS
WAUSAU         CLOUDY    29  14  53 N14G23    29.98R WCI  18
MOSINEE        CLOUDY    28  16  59 NW13      30.00R WCI  18
MARSHFIELD     CLOUDY    30  17  58 NW15G24   30.01R WCI  19
STEVENS POINT  CLOUDY    29  13  52 NW7G18    30.00R WCI  22
WAUPACA        CLOUDY    34  14  43 NW15G21   29.99S WCI  24
WAUTOMA        CLOUDY    32  16  52 NW14G25   30.01R WCI  22
WISC RAPIDS    CLOUDY    32  14  47 N14G25    30.02S WCI  22
CAMP DOUGLAS   CLOUDY    36  18  48 NW14G20   30.00S WCI  27
$$

WIZ011>013-019>022-031-037>040-048>050-262200-
NORTHEAST WISCONSIN

CITY           SKY/WX    TMP DP  RH WIND       PRES   REMARKS
ANTIGO         CLOUDY    25  13  61 NW12      29.97R WCI  14
SHAWANO        CLOUDY    32  17  52 N9G17     29.98R WCI  25
OCONTO         CLOUDY    31  17  55 NW10G18   29.97R WCI  22
STURGEON BAY   CLOUDY    30  16  55 N17G25    29.98R WCI  18
GREEN BAY      CLOUDY    32  21  64 N15       29.98R WCI  22
MANITOWOC      CLOUDY    33  22  63 NW13G20   29.97R WCI  24
APPLETON       CLOUDY    30  16  55 NW17G23   29.98R WCI  18
CLINTONVILLE   CLOUDY    32  16  51 NW16G24   29.99R WCI  21
OSHKOSH        CLOUDY    32  17  54 NW16G23   29.98R WCI  21
$$

WIZ032>034-041-042-053>061-262200-
SOUTHWEST WISCONSIN

CITY           SKY/WX    TMP DP  RH WIND       PRES   REMARKS
LA CROSSE      CLOUDY    38  19  46 NW12      30.05S WCI  30
SPARTA         CLOUDY    34  18  52 NW13G21   30.05R WCI  25
VIROQUA        CLOUDY    32  21  65 NW14      30.02S WCI  22
BOSCOBEL       CLOUDY    36  20  52 NW9G20    30.05R WCI  29
PRAIRIE DU CHI CLOUDY    34  21  59 NW16      30.06S WCI  23
PLATTEVILLE    CLOUDY    35  24  65 NW14      30.02R WCI  26
$$

WIZ056-057-062-063-064-067-068-262200-
SOUTH CENTRAL WISCONSIN

CITY           SKY/WX    TMP DP  RH WIND       PRES   REMARKS
REEDSBURG      CLOUDY    35  19  51 NW13G18   30.00R WCI  26
BARABOO/DELLS  CLOUDY    35  17  48 NW13G21   29.99R WCI  26
LONE ROCK      CLOUDY    38  19  46 NW14G21   30.02R WCI  30
MINERAL POINT  CLOUDY    36  21  55 NW14      30.01R WCI  27
MADISON        CLOUDY    36  19  50 NW13G20   29.99R WCI  27
MIDDLETON      CLOUDY    37  20  50 NW13      30.00R WCI  29
WATERTOWN      CLOUDY    35  20  54 NW12      29.97R WCI  27
MONROE         CLOUDY    36  25  64 NW14      29.99R WCI  27
JANESVILLE     CLOUDY    39  23  52 NW15G21   29.98R WCI  31
$$

WIZ051-052-058>065-066-070>072-262200-
SOUTHEAST WISCONSIN

CITY           SKY/WX    TMP DP  RH WIND       PRES   REMARKS
MILWAUKEE      CLOUDY    36  18  48 NW14      29.97R WCI  27
WAUKESHA       CLOUDY    32  19  59 NW16G23   29.97S WCI  21
MILWAUKEE/TIMM CLOUDY    34  18  51 NW17      29.98R WCI  23
RACINE         CLOUDY    37  21  52 NW14      29.98R WCI  28
BURLINGTON     CLOUDY    34  22  62 NW16      29.97R WCI  24
KENOSHA        CLOUDY    37  24  59 NW10      29.97R WCI  30
FOND DU LAC    CLOUDY    32  19  58 N14       29.98R WCI  22
SHEBOYGAN      CLOUDY    33  21  61 NW14G21   29.97R WCI  23
WEST BEND      CLOUDY    32  21  64 NW14      29.96S WCI  22
JUNEAU         CLOUDY    33  22  63 NW13      29.99R WCI  24
$$

LSZ147-162-262200-
LAKE SUPERIOR

STATION/POSITION TIME  TEMP    WIND        PRES    WAVE
                       AIR SEA DIR/SP/G            HT/PER
                 (UTC) (F)     (DEG/KT/KT) (MB)    (FT/S)
DEVILS ISLAND    2100   24     360/ 12/ 14 1021.3F
PORT WING        2040   26      20/  7/  8 1020.7S
$$

LMZ867-665-643>646-262200-
LAKE MICHIGAN

STATION/POSITION TIME  TEMP    WIND        PRES    WAVE
                       AIR SEA DIR/SP/G            HT/PER
                 (UTC) (F)     (DEG/KT/KT) (MB)    (FT/S)
NORTHPORT PIER   2005   27     360/ 22     1014.2R
SISTER BAY       2047   30      10/ 19/ 27   N/A
KEWAUNEE LAKESHO 2000   33     340/  7/ 14 1013.2R
SHEBOYGAN LAKESH 2100   33     320/ 15/ 18 1015.8R
PORT WASHINGTON  2040   35     310/  7/ 14 1015.6R
MILWAUKEE LAKESH 2000   36     300/  9/ 15   N/A
KENOSHA   LAKESH 2100   36     340/ 15/ 18 1014.9R
$$

TC  - TEMPERATURE IN CELSIUS
VSB - VISIBILITY IN STATUTE MILES
WCI - WIND CHILL INDEX
HX  - HEAT INDEX




USA.gov is the U.S. government's official web portal to all federal, state and local government web resources and services.